TimeCDT,TemperatureF,Dew PointF,Humidity,Sea Level PressureIn,VisibilityMPH,Wind Direction,Wind SpeedMPH,Gust SpeedMPH,PrecipitationIn,Events,Conditions,WindDirDegrees,DateUTC
12:54 AM,80.1,71.1,74,30.02,10.0,SSE,8.1,-,N/A,,Clear,160,2012-09-01 05:54:00
1:54 AM,79.0,71.1,77,30.01,10.0,South,6.9,-,N/A,,Clear,190,2012-09-01 06:54:00
2:54 AM,78.1,71.1,79,30.00,10.0,South,6.9,-,N/A,,Clear,170,2012-09-01 07:54:00
3:54 AM,78.1,71.1,79,30.00,10.0,SSE,8.1,-,N/A,,Mostly Cloudy,150,2012-09-01 08:54:00
4:54 AM,78.1,71.1,79,30.00,10.0,South,8.1,-,N/A,,Clear,170,2012-09-01 09:54:00
5:54 AM,78.1,70.0,76,30.00,10.0,SSE,8.1,-,N/A,,Clear,160,2012-09-01 10:54:00
6:39 AM,78.8,69.8,74,30.02,10.0,South,9.2,-,N/A,,Mostly Cloudy,170,2012-09-01 11:39:00
6:54 AM,77.0,70.0,79,30.01,10.0,SSE,9.2,-,N/A,,Mostly Cloudy,160,2012-09-01 11:54:00
7:08 AM,77.0,71.6,83,30.03,10.0,SSE,5.8,-,N/A,,Mostly Cloudy,160,2012-09-01 12:08:00
7:54 AM,78.1,71.1,79,30.02,10.0,SSE,5.8,-,N/A,,Overcast,160,2012-09-01 12:54:00
8:54 AM,79.0,71.1,77,30.02,10.0,South,8.1,-,0.00,,Mostly Cloudy,180,2012-09-01 13:54:00
9:39 AM,78.8,71.6,78,30.04,10.0,South,10.4,-,0.00,Rain,Light Rain,180,2012-09-01 14:39:00
9:54 AM,79.0,72.0,79,30.03,10.0,South,5.8,-,0.00,Rain,Light Rain,180,2012-09-01 14:54:00
10:54 AM,81.0,72.0,74,30.03,10.0,South,11.5,-,0.00,,Overcast,190,2012-09-01 15:54:00
11:54 AM,81.0,72.0,74,30.02,10.0,South,6.9,-,N/A,,Overcast,170,2012-09-01 16:54:00
12:22 PM,80.6,71.6,74,30.03,10.0,South,11.5,-,N/A,,Overcast,170,2012-09-01 17:22:00
12:54 PM,82.9,72.0,69,30.00,10.0,South,15.0,23.0,N/A,,Mostly Cloudy,170,2012-09-01 17:54:00
1:28 PM,84.2,71.6,66,30.00,10.0,South,12.7,23.0,N/A,,Mostly Cloudy,190,2012-09-01 18:28:00
1:54 PM,84.9,72.0,65,29.97,10.0,South,13.8,23.0,N/A,,Mostly Cloudy,170,2012-09-01 18:54:00
2:49 PM,87.8,71.6,58,29.95,10.0,South,16.1,21.9,N/A,,Mostly Cloudy,170,2012-09-01 19:49:00
2:54 PM,86.0,71.1,61,29.93,10.0,South,15.0,21.9,N/A,,Mostly Cloudy,190,2012-09-01 19:54:00
3:54 PM,86.0,71.1,61,29.91,10.0,SSE,15.0,24.2,N/A,,Partly Cloudy,150,2012-09-01 20:54:00
4:54 PM,87.1,70.0,57,29.90,10.0,South,15.0,24.2,0.00,,Mostly Cloudy,170,2012-09-01 21:54:00
5:54 PM,86.0,70.0,59,29.87,10.0,SSE,15.0,20.7,N/A,,Partly Cloudy,160,2012-09-01 22:54:00
6:54 PM,82.9,70.0,65,29.88,10.0,SSE,8.1,-,N/A,,Partly Cloudy,150,2012-09-01 23:54:00
7:54 PM,81.0,70.0,69,29.87,10.0,SE,10.4,17.3,N/A,,Mostly Cloudy,130,2012-09-02 00:54:00
8:54 PM,80.1,71.1,74,29.88,10.0,SE,10.4,17.3,N/A,,Mostly Cloudy,140,2012-09-02 01:54:00
9:33 PM,80.6,69.8,70,29.89,10.0,SE,10.4,-,N/A,Thunderstorm,Mostly Cloudy,130,2012-09-02 02:33:00
9:54 PM,73.0,70.0,90,29.92,6.0,West,6.9,-,0.04,Rain-Thunderstorm,Heavy Rain,280,2012-09-02 02:54:00
9:59 PM,73.4,69.8,88,29.95,2.0,SW,10.4,-,0.07,Rain-Thunderstorm,Heavy Rain,220,2012-09-02 02:59:00
10:01 PM,73.4,69.8,88,29.94,1.2,SW,10.4,-,0.12,Rain-Thunderstorm,Heavy Thunderstorms and Rain,230,2012-09-02 03:01:00
10:06 PM,71.6,69.8,94,29.94,0.8,SW,16.1,19.6,0.40,Rain-Thunderstorm,Heavy Thunderstorms and Rain,230,2012-09-02 03:06:00
10:11 PM,71.6,69.8,94,29.94,1.0,WSW,12.7,-,0.54,Rain-Thunderstorm,Heavy Thunderstorms and Rain,240,2012-09-02 03:11:00
10:17 PM,73.4,69.8,88,29.94,2.0,SW,12.7,20.7,0.62,Rain-Thunderstorm,Heavy Thunderstorms and Rain,220,2012-09-02 03:17:00
10:30 PM,73.4,69.8,88,29.94,3.0,SSW,10.4,-,0.73,Rain-Thunderstorm,Heavy Thunderstorms and Rain,210,2012-09-02 03:30:00
10:42 PM,73.4,69.8,88,29.93,5.0,SSW,8.1,-,0.77,Rain,Rain,200,2012-09-02 03:42:00
10:54 PM,73.4,69.8,88,29.93,4.0,SSW,6.9,-,N/A,Rain,Heavy Rain,200,2012-09-02 03:54:00
11:04 PM,73.4,69.8,88,29.93,4.0,SE,6.9,-,0.04,Rain-Thunderstorm,Heavy Rain,140,2012-09-02 04:04:00
11:23 PM,73.4,69.8,88,29.90,5.0,ENE,3.5,-,0.14,Rain,Heavy Rain,70,2012-09-02 04:23:00
11:42 PM,73.4,69.8,88,29.91,10.0,SW,5.8,-,N/A,Rain-Thunderstorm,Light Rain,230,2012-09-02 04:42:00
11:54 PM,73.0,70.0,90,29.88,4.0,WSW,3.5,-,0.20,Rain-Thunderstorm,Heavy Thunderstorms and Rain,240,2012-09-02 04:54:00